Location: La Trinit�
(48.1620°N, 3.4512°W)
Time: 18:08:11
(UTC+00:00)

Intercosmos 24 - Pass Details

Date: 08 May 2021
Orbit: 499 x 2378 km, 82.6° (Epoch: 15 June)

Event Time Altitude Azimuth Distance (km) Brightness Sun altitude
Rises 20:52:18 0° 188° (S) 2,882 7.2 -11.0°
Reaches altitude 10° 20:54:38 10° 188° (S) 1,849 6.2 -11.3°
Maximum altitude 20:58:28 89° 283° (WNW) 515 3.6 -11.8°
Drops below altitude 10° 21:02:03 10° 9° (N) 1,727 6.8 -12.2°
Sets 21:04:10 0° 10° (N) 2,668 7.8 -12.5°
